Tracking 29892 objects as of 21-Nov-2024
HD Live streaming from Space Station
objects crossing your sky now

SL-8 R/B

Track SL-8 R/B now!
10-day predictions


NORAD ID: 10121
Int'l Code: 1977-059B
Perigee: 761.8 km
Apogee: 789.8 km
Inclination: 74.0 °
Period: 100.2 minutes
Semi major axis: 7146 km
RCS: 4.7776 m2 (large)
Launch date: July 1, 1977
Source: Commonwealth of Independent States (former USSR) (CIS)
Launch site: PLESETSK MISSILE AND SPACE COMPLEX (PKMTR)

Note: This is a ROCKET BODY
Your satellite tracking list
Your tracking list is empty




NASA's NSSDC Master Catalog

Two Line Element Set (TLE):
1 10121U 77059B   24326.11211529  .00000385  00000-0  13862-3 0  9991
2 10121  74.0457 192.1588 0019548 235.3107 124.6205 14.36933750479445
Source of the keplerian elements: AFSPC